Location: Campillo
(40.8621°N, 4.2488°W)
Time: 11:56:33
(UTC+00:00)

Cosmos 1959 Rocket - Pass Details

Date: 11 May 2021
Orbit: 946 x 998 km, 83.0° (Epoch: 14 June)

Event Time Altitude Azimuth Distance (km) Brightness Sun altitude
Rises 23:02:37 0° 355° (N) 3,681 8.7 -28.8°
Reaches altitude 10° 23:05:10 10° 358° (N) 2,722 7.7 -28.9°
Enters shadow 23:11:19 67° 77° (ENE) 1,038 4.5 -29.3°
